Volver al catálogo

STARLINK-5752

ActivoComunicacionesVLEO
NORAD 55577·PAYLOAD·🇺🇸 United States

Lanzado Feb 12, 2023 desde Cape Canaveral Space Force Station

Loading…

Próximos Pases (próximas 24 horas)

TLE

ActualizadoSource: CelesTrak SupGP

Época: Sep 14, 2026, 21:59 UTC

1 55577C 23020J   26257.91645833 -.00029638  00000+0 -10732-2 0  2578
2 55577  43.0027  16.7039 0001790 269.3875 314.6666 15.27601093    17

Sigue STARLINK-5752 en tiempo real con AllMySat

Download on the App Store